Regional Weather Roundup
Issued by NWS

Home | Current Version | Previous Version | Text Only | Print | Product List | Glossary On
Versions: 1 2 3 4 5 6 7 8 9 10 11 12 13 14 15 16 17 18 19 20 21 22 23 24 25 26 27
000
ASUS44 KBMX 302110
RWRAL

ALABAMA REGIONAL WEATHER ROUNDUP
NATIONAL WEATHER SERVICE BIRMINGHAM AL
400 PM CDT SUN APR 30 2017

NOTE: "FAIR" INDICATES FEW OR NO CLOUDS BELOW 12,000 FEET
WITH NO SIGNIFICANT WEATHER AND/OR OBSTRUCTIONS TO VISIBILITY.

THE REMARK "TC" DENOTES TEMPERATURE IN DEGREES CELSIUS.

ALZ001>011-014-016>018-020-302200-
NORTH ALABAMA

CITY           SKY/WX    TMP DP  RH WIND       PRES   REMARKS
MUSCLE SHOALS  CLOUDY    69  63  81 S17G26    29.84R
HUNTSVILLE     CLOUDY    69  68  96 S20G26    29.92R
DECATUR          N/A    N/A N/A N/A MISG      29.91S
HALEYVILLE     CLOUDY    65  64  97 S14G21    29.92S
GADSDEN        LGT RAIN N/A N/A N/A SW18G31   30.01
$$

ALZ012-013-022-023-030>036-040>044-302200-
WEST CENTRAL ALABAMA

CITY           SKY/WX    TMP DP  RH WIND       PRES   REMARKS
TUSCALOOSA     TSTM      67  65  93 SE9       29.94F FOG
$$

ALZ015-024>027-033>036-040>044-302200-
CENTRAL ALABAMA

CITY           SKY/WX    TMP DP  RH WIND       PRES   REMARKS
BIRMINGHAM     LGT RAIN  67  65  93 S8        30.02F
MONTGOMERY     CLOUDY    84  66  54 S10       29.98F
SHELBY CO ARPT RAIN      67  66  97 S7        30.01F FOG
MAXWELL AFB    CLOUDY    84  68  58 S12       29.97F
GREENVILLE     LGT RAIN  80  68  66 S10       29.98F
$$

ALZ019-021-028-029-037-038-045>048-302200-
EAST CENTRAL ALABAMA

CITY           SKY/WX    TMP DP  RH WIND       PRES   REMARKS
ANNISTON       CLOUDY    82  64  54 S8G21     29.97F
ALEXANDER CITY CLOUDY    82  66  60 S7        30.00F
AUBURN         CLOUDY    82  66  58 S12       30.03F
$$

ALZ051>064-302200-
SOUTHWEST ALABAMA

CITY           SKY/WX    TMP DP  RH WIND       PRES   REMARKS
MOBILE         TSTM      77  73  87 S7        29.95F FOG
BROOKLEY FIELD CLOUDY    79  76  90 SE20G26   29.96F
EVERGREEN      CLOUDY    80  71  74 S13       29.98F
$$

ALZ049-050-065>069-302200-
SOUTHEAST ALABAMA

CITY           SKY/WX    TMP DP  RH WIND       PRES   REMARKS
DOTHAN         CLOUDY    87  64  46 S22       30.05S
OZARK          CLOUDY    86  68  54 S15       30.00F
TROY           CLOUDY    83  69  62 S7        30.00F
EUFAULA        FAIR      89  65  44 S12G18    30.00F HX  91
$$




USA.gov is the U.S. government's official web portal to all federal, state and local government web resources and services.